Location: Artiguedieu
(43.5000°N, 0.5454°E)
Time: 23:58:25
(UTC+00:00)

Transit 2A Rocket - Pass Details

Date: 04 August 2021
Orbit: 586 x 916 km, 66.7° (Epoch: 19 September)

Event Time Altitude Azimuth Distance (km) Brightness Sun altitude
Rises 13:22:28 0° 213° (SSW) 2,836 8.4 58.8°
Reaches altitude 10° 13:24:38 10° 215° (SW) 1,962 7.8 58.5°
Maximum altitude 13:29:02 78° 301° (WNW) 661 5.9 58.0°
Drops below altitude 10° 13:33:51 10° 29° (NNE) 2,137 7.1 57.4°
Sets 13:36:18 0° 31° (NNE) 3,113 7.8 57.1°
